www.pogodaiklimat.ru

Погода и климат >> Архив погоды >> Россия >> Ставропольский край >> Кисловодск


АРХИВ ПОГОДЫ в Кисловодске

Время (UTC), дата Ветер
(напр.,м/с)
 
Видим.   Явления Облачность Т
(С)
Тd
(С)
f
(%)
Тe
(С)
Тes
(С)
Комфортность P
(гПа)
Po
(гПа)
Тmin
(С)
Tmax
(С)
R
(мм)
R24
(мм)
S
(см)
03 13.05 ЮВ 1 10 км ливневой дождь 10/10 600 м
[Cb cap]
+10.1 +9.9 99 +9 +9 по сезону 1019.3 911.9 +10.1 3
06 13.05 штиль 0 10 км {ливн. осадки} 9/9 600 м
[Cb cap]
+11.3 +10.1 92 +11 +12 прохладно 1020.1 912.4 +10.0
09 13.05 С 1 10 км 9/9 600 м
[Cb cap]
+14.7 +10.0 73 +15 +17 прохладно 1018.3 911.9
12 13.05 С 1 10 км 9/9 600 м
[Cb cap]
+15.8 +8.5 62 +17 +18 прохладно 1017.7 911.8
15 13.05 штиль 0 10 км 10/10 600 м
[Cb cap]
+14.0 +9.2 73 +14 +14 прохладно 1018.3 911.7 +16.7
18 13.05 Ю 1 10 км 9/9 600 м
[Cb cap]
+12.1 +9.6 85 +12 +12 по сезону 1020.1 912.7
21 13.05 Ю 2 10 км 6/3 600 м
[Sc Ac cuf]
+9.4 +8.3 93 +8 +8 прохладно 1020.2 911.8
00 14.05 Ю 1 10 км 9/5 1000 м
[Sc Ci]
+7.8 +6.9 94 +7 +7 по сезону 1020.7 911.6
03 14.05 Ю 2 10 км 8/6 1000 м
[Sc Ac cast]
+8.5 +7.2 92 +7 +7 прохладно 1020.7 911.8 +7.4
06 14.05 СЗ 2 10 км 6/3 600 м
[Cu med, cong Ci fib]
+16.2 +6.1 51 +16 +23 по сезону 1017.6 911.8
09 14.05 С 2 10 км 8/3 1000 м
[Cu Sc Ci fib]
+19.3 +6.9 44 +20 +32 тепло 1015.6 911.1
12 14.05 СЗ 2 10 км 10/3 1000 м
[Cu med, cong Ac As Ci fib]
+19.9 +3.4 34 +21 +25 комфорт 1015.6 911.1
15 14.05 штиль 0 10 км 6/5 600 м
[Sc diur, vesp Ac cast]
+16.9 +6.5 50 +17 +18 по сезону 1016.7 911.2 +20.7
18 14.05 Ю 1 10 км ясно +11.5 +7.8 78 +11 +11 по сезону 1020.2 912.5
21 14.05 Ю 1 10 км ясно +9.4 +7.2 86 +9 +9 по сезону 1021.0 912.4
00 15.05 Ю 2 10 км ясно +7.9 +6.5 91 +6 +6 по сезону 1021.1 912.0
03 15.05 Ю 2 10 км ясно +8.5 +6.5 87 +7 +8 прохладно 1021.1 912.2 +7.7
06 15.05 СЗ 1 10 км 6/0
[Ci fib]
+18.5 +4.9 41 +20 +31 тепло 1017.1 912.0
09 15.05 С 2 10 км 4/0
[]
+22.1 +6.9 37 +23 +38 комфорт 1014.9 911.4
12 15.05 С 1 10 км 10/0
[Ci]
+23.5 +4.9 30 +23 +35 комфорт 1014.2 911.1
15 15.05 СВ 1 10 км 10/0
[Ci]
+21.0 +7.6 42 +23 +25 комфорт 1015.3 911.3 +23.9
18 15.05 Ю 2 10 км ясно +13.4 +8.5 72 +13 +13 по сезону 1019.1 912.2
21 15.05 Ю 1 10 км ясно +10.9 +7.5 80 +11 +11 по сезону 1019.0 911.2
00 16.05 Ю 2 10 км ясно +9.6 +7.1 84 +8 +8 по сезону 1018.9 910.6
03 16.05 Ю 2 10 км ясно +10.1 +6.7 79 +9 +10 прохладно 1018.0 910.0 +8.1
06 16.05 С 2 10 км 8/0
[Ci fib]
+20.5 +10.1 51 +23 +32 комфорт 1013.1 909.3
09 16.05 В 3 10 км ясно +23.8 +5.7 31 +24 +39 комфорт 1011.3 908.6
12 16.05 Ю 4 10 км ясно +23.8 +7.6 35 +24 +32 комфорт 1010.8 908.2
15 16.05 ЮВ 2 10 км ясно +22.1 +9.0 43 +23 +25 комфорт 1010.9 907.8 +24.2
18 16.05 Ю 3 10 км ясно +17.7 +11.1 65 +18 +18 тепло 1012.7 908.0
21 16.05 Ю 5 10 км ясно +16.5 +10.5 68 +16 +16 тепло 1012.5 907.5
00 17.05 ЮЗ 1 10 км ясно +13.9 +9.5 75 +14 +14 тепло 1013.1 907.1
03 17.05 Ю 2 10 км 4/0
[Ci fib]
+15.6 +9.2 66 +16 +16 тепло 1012.1 906.7 +12.6
06 17.05 В 2 10 км 3/0
[Ci]
+22.6 +10.3 46 +24 +35 комфорт 1009.3 906.6
09 17.05 ЮВ 3 10 км 8/1 1000 м
[Cu hum Ci]
+25.2 +9.7 38 +26 +38 жарко 1008.2 906.4
12 17.05 ЮВ 4 10 км 10/3 600 м
[Cb cap Ci]
+24.7 +11.0 42 +26 +31 жарко 1008.2 906.3
15 17.05 Ю 5
{10}
10 км 9/6 600 м
[Cb cap Ci ing]
+21.4 +11.5 53 +23 +24 комфорт 1008.5 905.5 +26.2
18 17.05 Ю 5
{11}
10 км 8/3 600 м
[Cb cap Ci fib]
+18.5 +10.8 61 +19 +19 тепло 1010.0 905.8
21 17.05 Ю 3 10 км ясно +14.2 +7.9 66 +13 +13 по сезону 1010.8 905.0
00 18.05 СВ 1 10 км ясно +11.7 +8.5 81 +12 +12 тепло 1011.1 904.5
03 18.05 штиль 0 10 км 10/0
[Ci]
+13.7 +7.9 68 +13 +15 по сезону 1010.0 904.2 +10.9
06 18.05 В 2 10 км 10/0
[Ci fib]
+22.5 +9.1 42 +24 +33 комфорт 1006.3 903.8
09 18.05 Ю 3 10 км 10/0
[Ac cast Ci fib]
+25.0 +10.2 39 +26 +36 жарко 1004.8 903.3
12 18.05 ЮВ 2
{11}
н/о н/о +22.8 +12.3 52 +26 +32 жарко 1004.5 902.4
15 18.05 Ю 8-14
{14}
10 км слаб. ливневой дождь, в посл. час гроза 10/6 600 м
[Cb cap Ac cuf Ci fib]
+18.8 +12.3 66 +19 +19 тепло 1005.4 901.9 +25.5
18 18.05 Ю 1
{14}
10 км {гроза, ливн. осадки} 10/0
[Ci fib]
+15.3 +11.0 76 +16 +16 тепло 1007.1 902.2
21 18.05 Ю 1 10 км 10/0
[Ac und]
+14.2 +11.3 83 +15 +15 тепло 1007.6 902.3
00 19.05 ЮЗ 1 10 км 10/0
[Ac As Ci fib]
+12.9 +9.8 81 +13 +13 тепло 1007.6 901.8
03 19.05 СВ 2 10 км 10/6 600 м
[Cb cap Ac As Ci fib]
+13.8 +10.4 80 +13 +13 по сезону 1007.6 902.2 +12.3
06 19.05 С 1 10 км 8/0
[Ac und Ci fib]
+20.5 +12.9 62 +24 +33 комфорт 1005.2 902.3
09 19.05 СВ 1 10 км гроза, ливневой дождь 10/10 600 м
[Cb cap]
+16.1 +14.3 89 +17 +17 по сезону 1008.3 903.6
12 19.05 ЮВ 4
{11}
10 км {гроза, ливн. осадки} 9/9 600 м
[Cb cap]
+19.5 +13.4 68 +21 +22 комфорт 1007.9 904.4
15 19.05 штиль 0 10 км гроза без осадков 9/9 600 м
[Cb cap]
+18.2 +15.0 82 +18 +19 по сезону 1010.1 906.0 +22.0 0.0
18 19.05 В 1 10 км {гроза, ливн. осадки} 8/0
[Ci]
+15.4 +13.0 86 +16 +16 тепло 1012.3 907.0
21 19.05 ЮЗ 1 10 км 10/0
[Ac und Ci]
+13.1 +11.8 92 +13 +13 по сезону 1012.4 906.2
00 20.05 штиль 0 10 км 10/0
[Ac und Ci]
+12.5 +11.7 95 +12 +12 тепло 1012.8 906.3

 

Местоположение метеостанции Кисловодск (Ставропольский край, Россия): широта 43.90 долгота 42.72 высота над уровнем моря 943 м.

В архиве по умолчанию представлена погода в Кисловодске за последнюю неделю. Архивные данные за месяц целиком и за предыдущие месяцы, начиная с января 2011 года, Вы можете получить, выбрав интересующий диапазон дат из раскрывающегося списка и нажав кнопку "Ввод!".


*Определитесь, кто Вы:
робот инопланетянин человек

Внимание! Время в таблицах - всемирное. Для получения местного времени необходимо прибавить поправку, которая равна 3 ч.

Смотрите также архив погоды в соседних городах и на ближайших метеорологических станциях:

Погода в Шаджатмазе (Карачаево-Черкессия, Россия) (19 км)
Погода в Минеральных Водах (Ставропольский край, Россия) (47 км)
Погода в Тырныаузе (Кабардино-Балкария, Россия) (60 км)
Погода в Черкесске (Карачаево-Черкессия, Россия) (63 км)
Погода в Георгиевске (Ставропольский край, Россия) (64 км)
Погода в Архызе (Карачаево-Черкессия, Россия) (71 км)
Погода на Леднике Гарабаши (Карачаево-Черкессия, Россия) (73 км)
Погода в Терсколе (Кабардино-Балкария, Россия) (74 км)
Погода в Чегете (Кабардино-Балкария, Россия) (76 км)
Погода в Нальчике (Кабардино-Балкария, Россия) (84 км)

Пояснения к столбцам:

Ветер - указаны скорость ветра в м/с - средняя за 10 мин, порывы в срок и между сроками (в фигурных скобках) и направление, откуда дует ветер: С - северный, СВ - северо-восточный, В - восточный, ЮВ - юго-восточный, Ю - южный, ЮЗ - юго-западный, З - западный, СЗ - северо-западный.
Видимость - горизонтальная дальность видимости в метрах или километрах. При видимости от 1 до 10 км при отсутствии осадков обычно наблюдается дымка, при ухудшении видимости до 1 км и менее - туман. В сухую погоду видимость может ухудшаться дымом, пылью или мглою.
Явления - указаны атмосферные явления, наблюдавшиеся в срок или в последний час перед сроком; фигурными скобками обозначены явления, наблюдавшиеся между сроками (за 1-3 часа до срока); квадратными скобками обозначены град или гололедные отложения с указанием их диаметра в мм.
Облачность - указаны через наклонную черту общая и нижняя облачность в баллах и высота нижней границы облаков в метрах; квадратными скобками обозначены формы облаков: Ci - перистые, Cs - перисто-слоистые, Cc - перисто-кучевые, Ac - высококучевые, As - высокослоистые, Sc - слоисто-кучевые, Ns - слоисто-дождевые, Cu - кучевые, Cb - кучево-дождевые. Подробнее классификацию облаков см. в Атласе облаков (PDF).
T - Температура воздуха - температура, измеренная на высоте 2 м над землей.
Td - Температура точки росы - температура, при понижении до которой содержащийся в воздухе водяной пар достигнет насыщения.
f - Относительная влажность воздуха - влажноcть воздуха, измеренная на высоте 2 м над землей.
Te - Эффективная температура - температура, которую ощущает одетый по сезону человек в тени. Характеристика душности погоды. При расчете учитывается влияние влажности воздуха и скорости ветра на теплоощущения человека.
Tes - Эффективная температура на солнце - температура, которую ощущает человек, с поправкой на солнечный нагрев. Характеристика знойности погоды. Зависит от высоты солнца над горизонтом, облачности и скорости ветра. Ночью, в пасмурную погоду, а также при ветре 12 м/с и более поправка равна нулю.
P - Атмосферное давление - приведенное к уровню моря атмосферное давление.
Po - Атмосферное давление - измеренное на уровне метеостанции атмосферное давление.
Tmin - Минимальная температура - минимум температуры воздуха на высоте 2 м над землей.
Tmax - Максимальная температура - максимум температуры воздуха на высоте 2 м над землей.
R - Количество осадков - Количество выпавших осадков за период времени, мм. При наведении курсора мыши на число - период времени, за который выпало указанное количество осадков.
R24 - Количество осадков - Количество выпавших осадков за 24 часа, мм.
S - Снежный покров - Высота снежного покрова, см. При наведении курсора мыши на число - состояние снежного покрова и степень покрытия местности в баллах.